Vorticity
3 4 9 12 9 8 10 10 4 5 3 6 13 6 15 15 17 22 17 18 18 17 16 16 18 16 17 16 8 10 32 7 22 6 1 0 12 10 6 5 10 10 14 6 14 32 14
5 5 12 10 10 7 9 14 5 5 3 6 10 1 11 20 15 13 14 15 12 13 16 11 11 13 14 18 17 4 31 22 22 12 3 2 11 -1 17 8 -0 19 -11 48 6 10 7
3 4 10 9 8 7 8 17 6 5 3 6 8 7 8 19 16 11 13 18 15 16 10 5 5 8 12 10 17 31 -20 23 33 6 -2 6 8 1 24 22 14 7 -0 10 11 -8 7
5 6 9 10 7 7 12 26 6 5 3 5 6 7 5 10 19 15 13 19 15 8 6 0 1 5 9 8 5 9 0 22 27 14 1 7 7 13 30 -9 18 -6 20 -4 14 7 14
5 5 11 9 6 6 19 14 6 6 3 4 6 8 5 1 13 18 12 9 4 2 -1 -1 -1 8 14 13 15 5 22 17 21 0 14 5 14 -2 27 -2 21 -13 37 3 28 -3 4
5 6 11 9 7 6 13 7 8 6 7 4 7 9 9 0 3 13 23 9 9 7 3 1 13 18 20 12 21 12 10 32 -25 35 6 0 10 -3 12 -5 16 -5 14 5 10 2 6
5 7 10 10 6 5 6 15 8 7 6 8 5 11 11 7 6 -2 10 25 20 8 7 7 -3 3 4 4 18 15 20 14 -2 -19 27 26 22 1 10 -9 38 12 -1 16 1 26 -4
6 8 9 8 7 7 9 6 13 8 6 5 8 2 14 13 8 15 2 8 8 20 24 22 13 13 11 13 16 19 19 15 6 10 21 16 7 9 2 0 5 23 -0 15 6 -12 21
8 8 9 9 10 8 8 9 16 10 9 5 4 11 5 16 11 15 17 20 6 14 2 10 10 14 12 6 15 14 16 4 22 15 54 -9 48 9 3 1 1 10 22 -3 10 26 -9
8 9 7 9 12 5 3 4 8 20 11 9 3 6 9 15 11 13 20 15 13 7 8 5 15 19 20 22 19 16 17 31 18 13 17 18 32 6 10 -4 -4 2 12 20 5 -3 -2
9 9 6 8 8 9 11 8 5 16 21 12 10 0 6 13 10 9 23 22 15 13 6 6 3 13 -10 15 23 21 10 24 -2 16 -23 23 10 17 9 4 -3 16 -3 5 2 24 11
10 7 6 5 6 9 11 16 7 11 21 12 7 4 3 13 4 4 20 8 17 9 -8 18 36 12 18 -6 -4 25 11 8 12 39 28 7 21 14 1 18 -5 2 -4 10 42 7 5
11 6 6 4 6 6 9 10 13 9 20 20 14 11 6 13 11 9 16 6 4 17 4 4 5 13 24 15 10 16 8 27 -20 -19 2 8 12 6 11 14 6 -3 13 4 5 9 4
12 6 6 5 6 5 7 11 12 14 17 23 14 10 4 14 16 8 8 5 11 7 32 15 -13 9 14 10 14 -7 7 16 44 37 -13 -2 16 -2 25 4 9 12 -15 -12 6 9 10
11 7 6 4 7 5 5 6 12 14 15 21 16 9 4 14 15 5 15 14 18 -4 5 8 -6 -4 40 8 20 11 19 -1 9 10 -8 6 19 19 27 10 -14 26 -6 -4 7 8 4
10 8 5 4 6 7 5 4 11 13 14 20 17 10 5 12 9 6 22 20 16 7 7 20 8 13 -2 2 2 5 14 14 -2 15 -27 14 11 -3 5 33 15 -0 11 16 5 5 8
10 8 5 6 4 5 7 6 8 13 14 18 20 14 6 11 18 15 11 14 6 8 -4 9 17 16 2 10 6 7 21 21 10 -3 18 24 -5 25 16 21 25 36 6 -13 2 -1 8
9 7 7 7 6 2 8 9 9 16 15 16 20 12 12 10 22 7 8 10 11 13 5 6 -0 7 7 9 8 8 -4 12 7 31 12 4 25 9 4 19 25 -3 34 -20 -14 15 2
7 7 8 8 6 9 9 8 10 14 15 17 21 17 10 8 4 13 4 6 7 14 2 7 9 1 1 2 4 3 14 16 8 -0 -1 5 28 -5 27 18 20 17 3 17 -17 10 13
7 8 8 7 9 7 10 9 9 15 12 18 24 16 10 10 10 5 9 6 6 4 14 4 14 12 1 7 14 9 25 12 -1 3 3 -3 19 -4 1 20 21 8 6 -0 8 0 -10
8 8 7 7 9 12 13 9 6 16 13 16 22 13 9 8 17 0 15 7 10 1 16 2 18 5 8 10 7 8 11 17 4 3 6 -1 15 5 13 11 20 34 18 27 -4 -1 -13
9 8 8 10 10 14 12 9 12 14 15 15 20 20 16 17 14 14 13 6 8 6 2 9 11 1 5 9 -4 14 12 10 -5 12 6 2 5 12 8 4 5 6 21 17 24 14 18
6 9 11 11 13 12 12 13 12 11 13 13 14 17 18 13 16 7 9 7 5 11 6 7 7 13 9 9 6 1 6 13 17 8 14 6 11 12 11 11 10 27 27 3 18 13 3
9 11 10 11 10 10 9 8 9 12 13 14 10 13 15 12 14 17 6 5 6 6 6 12 6 3 9 5 7 8 7 5 7 8 17 7 9 2 17 9 11 15 7 21 37 13 23
13 12 11 10 8 8 8 6 7 11 13 17 18 22 18 11 13 11 16 -4 9 12 6 6 -3 20 4 7 8 12 17 18 15 12 7 10 8 9 1 20 -13 15 13 9 9 10 42
9 10 9 7 7 9 8 6 6 12 14 8 13 27 28 26 25 20 12 15 11 18 12 16 12 19 12 9 8 13 5 4 17 11 24 7 12 -6 19 5 2 9 7 12 13 17 19
9 11 10 7 5 7 9 7 6 15 9 6 6 19 19 31 29 28 11 10 8 12 5 15 12 11 14 3 0 3 7 3 7 7 23 10 3 5 -1 -3 14 17 2 14 10 -11 23
11 14 14 11 8 4 8 8 9 13 12 3 6 0 12 18 4 27 33 20 13 12 9 0 30 11 16 4 2 8 12 8 9 6 12 10 0 18 24 10 17 23 17 -2 8 11 13
2 9 13 12 9 8 6 8 9 14 13 4 2 5 7 22 -3 18 24 29 31 11 8 2 4 22 18 4 5 11 7 14 -0 5 8 16 -13 6 -15 19 -3 10 0 8 20 1 12
Height
3127 3122 3115 3109 3103 3099 3093 3087 3083 3078 3073 3066 3060 3053 3045 3037 3031 3025 3021 3019 3018 3018 3019 3020 3021 3022 3024 3026 3029 3031 3032 3035 3044 3052 3060 3069 3074 3081 3087 3092 3100 3104 3108 3115 3119 3124 3127
3126 3120 3114 3107 3102 3096 3091 3085 3081 3076 3071 3065 3058 3051 3043 3036 3030 3024 3021 3019 3017 3018 3019 3019 3020 3021 3023 3025 3026 3025 3028 3032 3040 3047 3058 3066 3071 3080 3088 3090 3096 3100 3107 3111 3114 3121 3126
3124 3118 3112 3106 3100 3095 3089 3084 3079 3074 3069 3063 3057 3050 3043 3036 3030 3025 3021 3018 3017 3018 3018 3019 3021 3021 3021 3022 3021 3023 3023 3029 3034 3043 3055 3063 3071 3079 3085 3090 3095 3101 3106 3108 3113 3120 3123
3122 3116 3111 3105 3099 3093 3087 3081 3077 3072 3066 3062 3056 3049 3043 3036 3030 3026 3022 3019 3018 3019 3020 3020 3021 3021 3021 3020 3020 3020 3021 3027 3032 3041 3053 3063 3070 3079 3083 3089 3094 3099 3104 3106 3110 3118 3122
3121 3115 3109 3104 3098 3092 3086 3080 3076 3071 3065 3060 3055 3050 3044 3038 3031 3026 3023 3021 3020 3020 3020 3019 3020 3019 3020 3020 3021 3020 3022 3027 3033 3040 3050 3059 3064 3073 3081 3085 3092 3095 3097 3101 3108 3113 3117
3119 3114 3109 3103 3097 3091 3085 3080 3075 3070 3064 3058 3053 3048 3044 3039 3033 3028 3023 3022 3020 3019 3018 3018 3018 3020 3019 3020 3020 3019 3024 3026 3030 3040 3048 3053 3060 3069 3075 3079 3078 3082 3090 3097 3101 3106 3110
3118 3112 3108 3102 3096 3090 3085 3079 3074 3069 3063 3057 3052 3047 3041 3037 3034 3030 3025 3021 3022 3020 3017 3016 3017 3017 3017 3019 3018 3019 3023 3026 3029 3033 3038 3047 3055 3058 3061 3073 3080 3085 3090 3095 3100 3103 3108
3117 3112 3106 3101 3095 3089 3084 3078 3072 3066 3062 3057 3051 3046 3041 3036 3032 3029 3026 3023 3020 3019 3017 3015 3014 3014 3015 3016 3017 3019 3023 3026 3028 3035 3040 3046 3049 3061 3070 3076 3081 3087 3090 3093 3099 3103 3107
3115 3111 3105 3099 3093 3088 3083 3077 3071 3065 3060 3056 3051 3045 3041 3036 3031 3027 3024 3023 3020 3018 3018 3016 3014 3013 3014 3015 3017 3020 3023 3027 3028 3029 3036 3047 3051 3060 3068 3075 3081 3085 3088 3093 3097 3101 3104
3113 3109 3104 3098 3092 3087 3082 3076 3069 3063 3058 3054 3050 3046 3041 3037 3033 3026 3023 3021 3018 3018 3017 3018 3016 3016 3016 3016 3019 3022 3025 3025 3028 3034 3042 3049 3054 3061 3068 3075 3081 3084 3089 3093 3097 3099 3100
3112 3107 3103 3097 3091 3085 3080 3074 3068 3062 3055 3052 3049 3045 3042 3037 3034 3029 3025 3020 3018 3019 3020 3023 3019 3018 3016 3018 3022 3026 3029 3034 3036 3039 3045 3047 3052 3061 3068 3075 3081 3087 3090 3092 3095 3097 3099
3110 3105 3101 3095 3089 3083 3078 3072 3066 3061 3054 3050 3047 3044 3042 3039 3034 3029 3026 3021 3020 3022 3025 3025 3023 3023 3022 3019 3023 3029 3033 3036 3039 3040 3041 3046 3054 3064 3069 3075 3081 3085 3088 3091 3093 3096 3097
3107 3103 3099 3094 3089 3082 3077 3071 3065 3059 3053 3048 3046 3042 3040 3038 3034 3030 3028 3025 3023 3023 3032 3031 3027 3025 3024 3024 3025 3028 3032 3034 3036 3039 3046 3052 3059 3063 3070 3075 3081 3083 3085 3091 3096 3095 3091
3105 3100 3096 3092 3087 3081 3076 3070 3063 3057 3051 3046 3044 3041 3040 3038 3035 3031 3030 3029 3025 3030 3029 3030 3028 3027 3028 3029 3029 3030 3034 3034 3039 3041 3046 3052 3065 3064 3067 3071 3074 3079 3082 3082 3090 3090 3088
3102 3098 3093 3090 3085 3080 3075 3069 3062 3054 3050 3044 3042 3041 3039 3037 3035 3031 3032 3029 3031 3031 3032 3032 3031 3030 3029 3032 3033 3035 3037 3037 3041 3043 3047 3054 3059 3061 3063 3068 3075 3076 3078 3083 3084 3084 3085
3100 3096 3091 3087 3083 3079 3073 3066 3061 3054 3048 3044 3042 3040 3038 3036 3035 3032 3031 3032 3031 3032 3033 3033 3033 3035 3034 3035 3036 3036 3038 3040 3042 3044 3045 3049 3054 3059 3063 3067 3070 3072 3078 3082 3081 3085 3084
3097 3092 3088 3084 3081 3076 3070 3065 3060 3052 3047 3042 3039 3037 3037 3035 3034 3033 3031 3032 3034 3033 3033 3034 3034 3036 3037 3036 3038 3038 3039 3042 3043 3044 3045 3047 3050 3058 3061 3061 3064 3068 3069 3074 3076 3076 3075
3094 3089 3086 3082 3078 3072 3066 3062 3058 3052 3044 3039 3037 3037 3034 3034 3034 3033 3033 3032 3034 3034 3033 3034 3036 3037 3038 3039 3039 3039 3040 3041 3042 3045 3046 3048 3050 3055 3058 3059 3062 3062 3065 3069 3070 3073 3072
3090 3086 3083 3079 3074 3069 3064 3060 3055 3048 3043 3039 3036 3034 3033 3034 3036 3036 3035 3035 3033 3035 3034 3034 3035 3037 3038 3039 3040 3040 3041 3043 3044 3046 3048 3049 3051 3052 3056 3059 3057 3057 3060 3064 3067 3069 3067
3087 3083 3080 3076 3070 3065 3061 3057 3052 3046 3040 3037 3035 3034 3033 3032 3034 3036 3036 3036 3036 3035 3036 3034 3034 3036 3038 3040 3040 3041 3041 3043 3045 3046 3047 3048 3047 3048 3049 3048 3051 3052 3055 3060 3063 3063 3062
3084 3080 3076 3073 3067 3062 3059 3054 3051 3044 3039 3036 3034 3033 3032 3032 3033 3035 3038 3037 3037 3036 3036 3037 3036 3037 3037 3038 3039 3041 3042 3043 3044 3045 3046 3047 3047 3048 3048 3048 3049 3050 3053 3054 3054 3057 3057
3080 3077 3074 3070 3064 3060 3056 3052 3047 3041 3036 3033 3032 3031 3029 3029 3029 3031 3032 3037 3038 3036 3037 3037 3038 3037 3038 3039 3039 3040 3041 3042 3043 3044 3045 3046 3046 3047 3048 3048 3049 3049 3049 3049 3051 3052 3053
3078 3074 3071 3066 3062 3057 3053 3049 3043 3038 3034 3031 3030 3029 3028 3027 3027 3028 3030 3032 3033 3036 3036 3036 3037 3038 3038 3040 3039 3040 3040 3041 3041 3042 3042 3043 3044 3045 3046 3046 3047 3046 3043 3043 3043 3045 3048
3073 3070 3068 3064 3060 3055 3051 3046 3041 3037 3035 3031 3028 3027 3024 3024 3024 3025 3026 3028 3030 3032 3033 3034 3035 3037 3039 3039 3040 3039 3039 3039 3040 3040 3041 3041 3043 3044 3044 3046 3048 3039 3038 3038 3039 3041 3042
3070 3068 3065 3061 3057 3053 3050 3045 3039 3035 3033 3030 3027 3024 3022 3019 3020 3021 3022 3023 3026 3027 3030 3031 3033 3034 3036 3037 3039 3039 3039 3039 3038 3038 3039 3040 3041 3042 3043 3042 3037 3035 3035 3036 3035 3035 3034
3068 3065 3062 3059 3055 3052 3048 3043 3037 3034 3031 3029 3025 3021 3018 3015 3015 3015 3017 3017 3020 3023 3025 3027 3030 3032 3033 3035 3037 3036 3036 3036 3036 3037 3036 3038 3039 3041 3041 3040 3037 3033 3032 3032 3032 3030 3030
3065 3062 3059 3056 3053 3050 3046 3042 3036 3033 3030 3029 3025 3021 3017 3013 3011 3013 3017 3018 3016 3019 3021 3022 3025 3028 3030 3031 3033 3034 3034 3034 3034 3033 3033 3035 3037 3037 3038 3037 3032 3030 3031 3031 3033 3035 3029
3062 3060 3057 3054 3051 3048 3045 3040 3036 3032 3029 3028 3026 3022 3019 3015 3012 3010 3008 3010 3013 3014 3017 3019 3022 3024 3026 3029 3030 3030 3030 3031 3031 3031 3031 3032 3034 3034 3036 3036 3033 3028 3030 3032 3031 3030 3028
3060 3057 3054 3052 3049 3046 3042 3038 3035 3030 3027 3026 3025 3022 3019 3015 3012 3011 3008 3007 3007 3010 3014 3015 3018 3018 3022 3024 3026 3027 3028 3028 3029 3029 3030 3031 3030 3031 3032 3030 3029 3029 3029 3029 3029 3029 3029